Regional Weather Roundup
Issued by NWS

Home | Current Version | Previous Version | Graphics & Text | Print | Product List | Glossary On
Versions: 1 2 3 4 5 6 7 8 9 10 11 12 13 14 15 16 17 18 19 20 21 22 23 24 25 26 27
000
ASUS45 KBOU 180710
RWRCO

WEATHER ROUNDUP FOR COLORADO
NATIONAL WEATHER SERVICE DENVER/BOULDER CO
1200 AM MST THU JAN 18 2018

NOTE: "FAIR" INDICATES FEW OR NO CLOUDS BELOW 12000 FEET WITH NO
SIGNIFICANT WEATHER AND/OR OBSTRUCTIONS TO VISIBILITY.

COZ001>005-013-030-031-180800-
...NORTHWEST COLORADO...

CITY           SKY/WX    TMP DP  RH WIND       PRES   REMARKS
CRAIG          FAIR      13   6  74 CALM      30.37F
HAYDEN         FAIR     N/A N/A N/A E10       30.39S
MEEKER         FAIR      21  17  84 NE5       30.37F WCI  15
RABBIT EARS PA FAIR      19  16  86 W9G18     30.35S WCI   9
STEAMBOAT SPGS FAIR      10   7  89 CALM      30.38F
WALDEN         FAIR      12   7  79 SE7       30.35S WCI   2
$$

COZ006>008-011-180800-
...WEST CENTRAL VALLEYS...

CITY           SKY/WX    TMP DP  RH WIND       PRES   REMARKS
GRAND JUNCTION FAIR      26  14  60 E6        30.38S WCI  19
MONTROSE       FAIR      20  12  71 S9        30.42R WCI   9
EAGLE          FAIR      14   6  70 E3        30.45R
RIFLE          FAIR      22  16  78 E3        30.40S
DELTA          FAIR      27  14  58 CALM      30.40F
NUCLA          FAIR      23  14  68 SE6       30.41R WCI  16
$$

COZ017>023-064>068-180800-
...SOUTHWEST COLORADO...

CITY           SKY/WX    TMP DP  RH WIND       PRES   REMARKS
DURANGO        FAIR      16  13  88 NE6       30.33S WCI   7
CORTEZ         FAIR      19  15  84 E5        30.35R WCI  12
PAGOSA SPRINGS FAIR      23  15  73 CALM      30.33F
TELLURIDE      FAIR      24   8  51 SE6       30.39R WCI  17
WOLF CREEK PAS FAIR      25  -6  26 SW8       30.42F WCI  16
$$

COZ009-010-012-014-032>034-037-058>063-180800-
...CENTRAL COLORADO...

CITY           SKY/WX    TMP DP  RH WIND       PRES   REMARKS
ASPEN          FAIR      17   9  70 S7        30.38R WCI   8
BUENA VISTA    FAIR      25   9  52 W8        30.31S WCI  16
COPPER MTN     NOT AVBL
BERTHOUD PASS  FAIR      12   1  62 NW21G29   30.35R WCI  -6
COTTONWOOD PAS   N/A     36   3  25 W7        30.31F
GUNNISON       FAIR       4   0  83 CALM      30.42R
KREMMLING      FAIR      10   3  72 CALM      30.44S
LEADVILLE      FAIR      12   6  77 NE7       30.35R WCI   1
MONARCH PASS   FAIR      18   7  62 W32       30.45S WCI  -3
SALIDA         FAIR      28   5  37 NW5       30.39S WCI  22
SUNLIGHT       FAIR      21  10  63 W6        30.43S WCI  14
WILKERSON PASS FAIR      23   0  36 NW8       30.33F WCI  14
$$

COZ069>075-180800-
...SAN LUIS VALLEY/SANGRE DE CRISTO MOUNTAINS...

CITY           SKY/WX    TMP DP  RH WIND       PRES   REMARKS
ALAMOSA        FAIR       5  -3  69 CALM      30.31F
DEL NORTE      FAIR      23  -2  33 W10       30.33R WCI  13
LA VETA PASS   FAIR      23   0  36 SW25        N/A  WCI   7
SAGUACHE       FAIR      27   5  39 NW16      30.32F WCI  14
$$

COZ035-036-038>040-180800-
...NORTHERN COLORADO FRONT RANGE...

CITY           SKY/WX    TMP DP  RH WIND       PRES   REMARKS
DENVER INTL AP FAIR      32  13  45 SW10      30.19F WCI  24
DMNS CITY PARK NOT AVBL
AURORA         CLEAR     29  11  45 S10       30.19F WCI  20
FRONT RANGE AP FAIR      28  18  66 S8        30.20S WCI  20
ERIE MUNI ARPT FAIR      21  13  73 SW3       30.24F
BOULDER MUN AP FAIR      32  14  47 CALM      30.18F
CENTENNIAL     FAIR      28   9  44 SE8       30.19F WCI  20
BROOMFIELD     FAIR      32  10  40 CALM      30.19S
FORT COLLINS   FAIR      26  16  65 N7        30.20F WCI  18
LONGMONT       FAIR      26  14  60 W5        30.21S WCI  21
$$

COZ041-046-047-076>085-087-088-180800-
...PIKES PEAK/PALMER DIVIDE AND SOUTHERN FOOTHILLS...

CITY           SKY/WX    TMP DP  RH WIND       PRES   REMARKS
COLO. SPRINGS  FAIR      21   5  50 NE7       30.23F WCI  12
A. F. ACADEMY  FAIR      17   4  57 N10       30.22F WCI   4
SCHRIEVER AFB  FAIR      29   4  34 W5        30.23F WCI  24
CHEYENNE MTN   FAIR      31   3  30 N5        30.17F WCI  26
ELLICOTT         N/A    N/A N/A N/A CALM      30.21F
FALCON         FAIR      27   3  35 W7        30.24F WCI  20
FORT CARSON    FAIR      24   8  49 NW10      30.21F WCI  14
LIMON          FAIR      12   7  80 N7        30.21F WCI   1
MONUMENT HILL  FAIR      28   7  40 S10       30.23F WCI  19
CANON CITY     FAIR      30   3  31 W10       30.22F WCI  21
WALSENBURG     FAIR      23   9  54 CALM      30.24S
TRINIDAD       FAIR      26   6  42 W15       30.24F WCI  14
$$

COZ042>045-048>051-090-091-180800-
...NORTHEAST COLORADO...

CITY           SKY/WX    TMP DP  RH WIND       PRES   REMARKS
GREELEY ARPT   FAIR      17  10  74 W3        30.21
AKRON          FAIR      31  17  56 SW14      30.18F WCI  21
BURLINGTON     FAIR      20   8  60 W10       30.19F WCI   9
WRAY           FAIR      19  14  79 W7        30.19F WCI  10
YUMA           FAIR      19  12  73 W9        30.18S WCI   9
STERLING       FAIR      14  12  92 SW3       30.20R
HOLYOKE        FAIR      21  18  86 W9        30.19S WCI  11
FORT MORGAN    FAIR      24  13  63 W8        30.21S WCI  15
$$

COZ086-089-092>099-180800-
...SOUTHEAST COLORADO...

CITY           SKY/WX    TMP DP  RH WIND       PRES   REMARKS
PUEBLO         FAIR      17   7  64 W7        30.23F WCI   8
LA JUNTA       FAIR      22  12  65 W12       30.23F WCI  10
LAMAR          FAIR      14   6  70 SW8       30.21F WCI   3
SPRINGFIELD      N/A     16   9  74 W6        30.21F WCI   7
$$




USA.gov is the U.S. government's official web portal to all federal, state and local government web resources and services.